Weather in Zarucheyny

Russia / Komi Republic     62°05′07″N   49°21′38″E
temp.,
°C
wind,
m/s
gust,
m/s
humid.,
%
clouds,
%
prec.,
mm/h
press.,
hPa
HPBL,
m
8 march, mon
mon800:00−18ene2399100 0.1 100383
03:00−18ene3698100 0.1 1002191
06:00−19ene3898100 0.0 1002264
09:00−18ne3795100 0.1 1002291
12:00−15ne4791100 0.0 1002430
15:00−14ne4889100 0.1 1003624
18:00−18nne3994100 0.0 1005425
21:00−22nne389795 0.1 1008251
9 march, tue
tue900:00−25nne389777 0.0 1009220
03:00−29n389646 0.0 1012211
06:00−32n25977 0.0 1014130
09:00−28nne369213 0.0 1016323
12:00−23n358861 0.0 1017477
15:00−20n358768 0.0 1018582
18:00−25n229584 0.0 101920
21:00−28nnw129766 0.0 102019
10 march, wed
wed1000:00−29nw12980 0.0 102119
03:00−29wnw12970 0.0 102119
06:00−29w229820 0.0 102133
09:00−24w259545 0.0 1021247
12:00−18w369197 0.0 1020378
15:00−15w499096 0.0 1018436
18:00−14w41194100 0.2 1016630
21:00−12wnw41192100 0.4 1015563
11 march, thu
thu1100:00−11wnw41193100 0.2 1014622
03:00−9nw41289100 0.3 1015821
06:00−10nw51379100 0.0 1015607
09:00−11nw5127299 0.0 1016650
12:00−9wnw597273 0.0 1017762
15:00−8wnw5107462 0.0 1016960
18:00−12w412840 0.0 1017601
21:00−14w413880 0.0 1017563
12 march, fri
fri1200:00−15w3129015 0.0 1018484
03:00−15w4128624 0.0 1018396
06:00−16wsw4129186 0.0 1018357
09:00−13wsw4108788 0.0 1018443
12:00−9wsw5117997 0.0 1018696
15:00−8wsw5127999 0.0 1017795
18:00−10wsw4128597 0.0 1017634
21:00−11wsw4138996 0.0 1018559